This demonstration page uses our WeatherBlox Daily Observations layout. Learn more.

Left ArrowRight Arrow

Hourly Observations for August 12, 2019

Temp ( °F °C ) Dew Point ( °F °C ) Humidity (%) Winds ( mph kmh ) Pressure ( in mb ) Visibility ( mi km ) Precip ( " mm )
12:59 am 00:59 Clear 71 21.7 65 18.3 81 81 SSE 3 6 30.04 1017 10 16 0.00 0.00
1:59 am 01:59 Partly Cloudy 71 21.7 65 18.3 81 81 S 3 6 30.04 1017 10 16 0.00 0.00
2:59 am 02:59 Partly Cloudy 70 21.1 66 18.9 87 87 S 3 6 30.04 1017 10 16 0.00 0.00
3:59 am 03:59 Mostly Clear 71 21.7 66 18.9 84 84 S 5 7 30.02 1017 10 16 0.00 0.00
4:59 am 04:59 Clear 69 20.6 66 18.9 90 90 S 3 6 30.03 1017 10 16 0.00 0.00
5:59 am 05:59 Partly Cloudy 69 20.6 66 18.9 90 90 Calm 30.03 1017 10 16 0.00 0.00
6:59 am 06:59 Partly Cloudy 70 21.1 67 19.4 90 90 Calm 30.04 1017 10 16 0.00 0.00
7:59 am 07:59 Mostly Cloudy 76 24.4 70 21.1 82 82 Calm 30.05 1018 10 16 0.00 0.00
8:59 am 08:59 Partly Cloudy 80 26.7 69 20.6 69 69 Calm 30.04 1017 10 16 0.00 0.00
9:59 am 09:59 Partly Cloudy 83 28.3 66 18.9 57 57 S 3 6 30.04 1017 10 16 0.00 0.00
10:59 am 10:59 Partly Cloudy 86 30 69 20.6 57 57 N 6 9 30.04 1017 10 16 0.00 0.00
11:59 am 11:59 Partly Cloudy 82 27.8 67 19.4 60 60 N 5 7 30.04 1017 10 16 0.00 0.00
12:59 pm 12:59 Partly Cloudy 86 30 68 20 55 55 NNW 7 11 30.03 1017 10 16 0.00 0.00
1:59 pm 13:59 Partly Cloudy 85 29.4 65 18.3 51 51 ENE 8 13 30.02 1017 10 16 0.00 0.00
2:59 pm 14:59 Partly Cloudy 86 30 67 19.4 53 53 ENE 10 17 30.00 1016 10 16 0.00 0.00
3:59 pm 15:59 Mostly Cloudy 88 31.1 68 20 52 52 E 9 15 29.98 1015 10 16 0.00 0.00
4:59 pm 16:59 Mostly Cloudy 87 30.6 65 18.3 48 48 S 8 13 29.97 1015 10 16 0.00 0.00
5:59 pm 17:59 Mostly Cloudy 85 29.4 65 18.3 51 51 SSE 10 17 29.96 1015 10 16 0.00 0.00
6:59 pm 18:59 Mostly Cloudy 82 27.8 63 17.2 53 53 S 14 22 29.96 1014 10 16 0.00 0.00
7:59 pm 19:59 Mostly Cloudy 80 26.7 63 17.2 56 56 S 8 13 29.96 1015 10 16 0.00 0.00
8:59 pm 20:59 Mostly Cloudy 79 26.1 62 16.7 56 56 S 8 13 29.96 1015 10 16 0.00 0.00
9:59 pm 21:59 Mostly Cloudy 78 25.6 62 16.7 58 58 S 8 13 29.96 1015 10 16 0.00 0.00
10:59 pm 22:59 Mostly Cloudy 76 24.4 65 18.3 69 69 S 9 15 29.96 1015 10 16 0.00 0.00
11:59 pm 23:59 Partly Cloudy 77 25 68 20 74 74 S 10 17 29.96 1015 10 16 0.00 0.00

Powered by AerisWeather